Mojave, CA

12:25 PM PST on December 11, 2019 (GMT -0800)
Mojave

Weather History for KMHV - October, 2019

Change the Weather History Date:

Wednesday, October 23, 2019

  Actual Average Record
Temperature  
Mean Temperature 66 °F -  
Max Temperature 82 °F 75 °F 89 °F (1988)
Min Temperature 51 °F 47 °F 37 °F (1971)
Cooling Degree Days 2    
Growing Degree Days 16 (Base 50)    
Moisture  
Dew Point 24 °F    
Average Humidity 21    
Maximum Humidity 35    
Minimum Humidity 10    
Precipitation  
Precipitation 0.00 in - - ()
Sea Level Pressure  
Sea Level Pressure 30.07 in    
Wind  
Wind Speed 7 mph ()    
Max Wind Speed 14 mph    
Max Gust Speed 20 mph    
Visibility 9.9 miles    
Events      
Averages and records for this station are not official NWS values.
T = Trace of Precipitation, MM = Missing Value Source: Averaged Metar Reports

Daily Weather History Graph

Daily Weather History Graph

Search for Another Location

Airport or City:

Astronomy

Oct. 23, 2019 Rise Set
Actual Time 7:05 AM PDT 6:07 PM PDT
Civil Twilight 6:39 AM PDT 6:33 PM PDT
Nautical Twilight 6:09 AM PDT 7:03 PM PDT
Astronomical Twilight 5:40 AM PDT 7:32 PM PDT
Moon 1:46 AM PDT (10/23) 3:46 PM PDT (10/23)
Length of Visible Light 11h 54m
Length of Day
11h 02m
Waning Crescent, 25% of the Moon is Illuminated
Oct 23
Waning Crescent
Oct 27
New
Nov 4
First Quarter
Nov 12
Full
Nov 19
Last Quarter

Hourly Weather History & Observations

Time (PDT) Temp. Dew Point Humidity Pressure Visibility Wind Dir Wind Speed Gust Speed Precip Events Conditions
12:00 AM 62.6 °F 28.4 °F 27% 30.11 in 10.0 mi NNW 10.4 mph - N/A   Clear
12:20 AM 62.6 °F 28.4 °F 27% 30.11 in 10.0 mi NNW 9.2 mph - N/A   Clear
12:40 AM 60.8 °F 26.6 °F 27% 30.11 in 10.0 mi NW 10.4 mph - N/A   Clear
1:00 AM 59.0 °F 26.6 °F 29% 30.11 in 10.0 mi NW 9.2 mph - N/A   Clear
1:20 AM 59.0 °F 24.8 °F 27% 30.11 in 10.0 mi NW 6.9 mph - N/A   Clear
1:40 AM 59.0 °F 24.8 °F 27% 30.10 in 10.0 mi NW 9.2 mph - N/A   Clear
2:00 AM 57.2 °F 24.8 °F 29% 30.10 in 10.0 mi NW 5.8 mph - N/A   Clear
2:20 AM 59.0 °F 26.6 °F 29% 30.10 in 10.0 mi Calm Calm - N/A   Clear
2:40 AM 59.0 °F 26.6 °F 29% 30.09 in 10.0 mi North 5.8 mph - N/A   Clear
3:20 AM 59.0 °F 26.6 °F 29% 30.08 in 10.0 mi North 4.6 mph - N/A   Clear
4:00 AM 55.4 °F 26.6 °F 33% 30.08 in 10.0 mi North 4.6 mph - N/A   Clear
4:20 AM 53.6 °F 26.6 °F 35% 30.07 in 10.0 mi NNE 6.9 mph - N/A   Clear
4:40 AM 53.6 °F 26.6 °F 35% 30.07 in 10.0 mi North 3.5 mph - N/A   Clear
5:00 AM 51.8 °F 24.8 °F 35% 30.07 in 10.0 mi NNW 4.6 mph - N/A   Clear
5:20 AM 51.8 °F 24.8 °F 35% 30.07 in 10.0 mi NNW 4.6 mph - N/A   Clear
5:40 AM 51.8 °F 24.8 °F 35% 30.07 in 10.0 mi NW 6.9 mph - N/A   Clear
6:00 AM 51.8 °F 24.8 °F 35% 30.07 in 9.0 mi NW 4.6 mph - N/A   Clear
6:20 AM 51.8 °F 24.8 °F 35% 30.06 in 10.0 mi NW 4.6 mph - N/A   Clear
6:40 AM 51.8 °F 24.8 °F 35% 30.07 in 10.0 mi NNW 5.8 mph - N/A   Clear
7:00 AM 51.8 °F 24.8 °F 35% 30.07 in 9.0 mi NNW 5.8 mph - N/A   Clear
7:20 AM 53.6 °F 24.8 °F 33% 30.07 in 9.0 mi NNW 5.8 mph - N/A   Clear
7:40 AM 55.4 °F 24.8 °F 31% 30.08 in 9.0 mi North 5.8 mph - N/A   Clear
8:00 AM 59.0 °F 26.6 °F 29% 30.09 in 10.0 mi NW 6.9 mph - N/A   Clear
8:20 AM 66.2 °F 26.6 °F 23% 30.09 in 9.0 mi Calm Calm - N/A   Clear
8:40 AM 66.2 °F 26.6 °F 23% 30.10 in 10.0 mi Calm Calm - N/A   Clear
9:00 AM 68.0 °F 26.6 °F 21% 30.10 in 10.0 mi East 3.5 mph - N/A   Clear
9:20 AM 69.8 °F 26.6 °F 20% 30.10 in 10.0 mi ENE 6.9 mph - N/A   Clear
9:40 AM 69.8 °F 26.6 °F 20% 30.11 in 10.0 mi ENE 8.1 mph - N/A   Clear
10:00 AM 71.6 °F 24.8 °F 17% 30.10 in 10.0 mi ENE 6.9 mph - N/A   Clear
10:20 AM 71.6 °F 24.8 °F 17% 30.10 in 10.0 mi ENE 8.1 mph - N/A   Clear
10:40 AM 73.4 °F 23.0 °F 15% 30.10 in 10.0 mi ENE 10.4 mph - N/A   Clear
11:00 AM 75.2 °F 23.0 °F 14% 30.10 in 10.0 mi NE 12.7 mph - N/A   Clear
11:20 AM 77.0 °F 23.0 °F 13% 30.10 in 10.0 mi NE 13.8 mph - N/A   Clear
11:40 AM 77.0 °F 21.2 °F 12% 30.09 in 10.0 mi NE 13.8 mph - N/A   Clear
12:00 PM 77.0 °F 21.2 °F 12% 30.09 in 10.0 mi ENE 9.2 mph - N/A   Clear
12:20 PM 77.0 °F 21.2 °F 12% 30.08 in 10.0 mi ENE 9.2 mph - N/A   Clear
12:40 PM 78.8 °F 23.0 °F 13% 30.07 in 10.0 mi NNE 6.9 mph 15.0 mph N/A   Clear
1:00 PM 78.8 °F 23.0 °F 13% 30.06 in 10.0 mi East 9.2 mph - N/A   Clear
1:20 PM 78.8 °F 21.2 °F 12% 30.05 in 10.0 mi NE 3.5 mph 12.7 mph N/A   Clear
1:40 PM 80.6 °F 21.2 °F 11% 30.04 in 10.0 mi NE 6.9 mph 12.7 mph N/A   Clear
2:00 PM 80.6 °F 21.2 °F 11% 30.04 in 10.0 mi Variable 4.6 mph 13.8 mph N/A   Clear
2:20 PM 80.6 °F 21.2 °F 11% 30.03 in 10.0 mi NE 12.7 mph 19.6 mph N/A   Clear
2:40 PM 80.6 °F 21.2 °F 11% 30.03 in 10.0 mi NNE 6.9 mph 15.0 mph N/A   Clear
3:00 PM 82.4 °F 21.2 °F 10% 30.02 in 10.0 mi NNE 9.2 mph 16.1 mph N/A   Clear
3:20 PM 82.4 °F 21.2 °F 10% 30.03 in 10.0 mi NE 11.5 mph - N/A   Clear
3:40 PM 82.4 °F 21.2 °F 10% 30.02 in 10.0 mi NE 12.7 mph - N/A   Clear
4:00 PM 82.4 °F 21.2 °F 10% 30.02 in 10.0 mi NNE 12.7 mph - N/A   Clear
4:20 PM 82.4 °F 21.2 °F 10% 30.02 in 10.0 mi ENE 10.4 mph - N/A   Clear
4:40 PM 80.6 °F 21.2 °F 11% 30.01 in 10.0 mi ENE 10.4 mph 16.1 mph N/A   Clear
5:00 PM 80.6 °F 21.2 °F 11% 30.01 in 10.0 mi ENE 12.7 mph - N/A   Clear
5:40 PM 80.6 °F 21.2 °F 11% 30.00 in 10.0 mi ENE 8.1 mph 17.3 mph N/A   Clear
6:00 PM 78.8 °F 23.0 °F 13% 30.00 in 10.0 mi ENE 5.8 mph - N/A   Clear
6:20 PM 75.2 °F 21.2 °F 13% 30.00 in 10.0 mi NE 5.8 mph - N/A   Clear
6:40 PM 71.6 °F 21.2 °F 15% 30.01 in 10.0 mi NNE 8.1 mph - N/A   Clear
7:00 PM 69.8 °F 21.2 °F 16% 30.02 in 10.0 mi North 9.2 mph - N/A   Clear
7:20 PM 69.8 °F 21.2 °F 16% 30.03 in 10.0 mi North 10.4 mph - N/A   Clear
7:40 PM 69.8 °F 21.2 °F 16% 30.03 in 10.0 mi North 10.4 mph - N/A   Clear
8:00 PM 68.0 °F 23.0 °F 18% 30.04 in 10.0 mi NNE 10.4 mph - N/A   Clear
8:20 PM 68.0 °F 23.0 °F 18% 30.04 in 10.0 mi NNE 10.4 mph - N/A   Clear
9:00 PM 66.2 °F 23.0 °F 19% 30.05 in 10.0 mi North 6.9 mph - N/A   Clear
9:20 PM 66.2 °F 23.0 °F 19% 30.05 in 10.0 mi North 10.4 mph - N/A   Clear
9:40 PM 66.2 °F 23.0 °F 19% 30.06 in 10.0 mi North 10.4 mph - N/A   Clear
10:00 PM 66.2 °F 23.0 °F 19% 30.07 in 10.0 mi North 10.4 mph - N/A   Clear
10:20 PM 66.2 °F 23.0 °F 19% 30.06 in 10.0 mi North 9.2 mph - N/A   Clear
10:40 PM 64.4 °F 23.0 °F 21% 30.07 in 10.0 mi North 9.2 mph - N/A   Clear
11:00 PM 64.4 °F 24.8 °F 22% 30.08 in 10.0 mi NNE 10.4 mph - N/A   Clear
11:20 PM 62.6 °F 24.8 °F 24% 30.08 in 10.0 mi NNE 6.9 mph - N/A   Clear
11:40 PM 62.6 °F 24.8 °F 24% 30.08 in 10.0 mi NNE 6.9 mph - N/A   Clear